Location: Ammerl�gen
(47.2167°N, 9.6000°E)
Time: 03:00:53
(UTC+00:00)

Terra - Pass Details

Date: 21 April 2021
Orbit: 701 x 703 km, 98.2° (Epoch: 16 May)

Event Time Altitude Azimuth Distance (km) Brightness Sun altitude
Exits shadow 21:59:35 35° 264° (W) 1,134 2.9 -27.9°
Drops below altitude 10° 22:03:55 10° 330° (NNW) 2,181 5.3 -28.2°
Sets 22:06:22 0° 339° (NNW) 3,104 6.4 -28.4°
